Hourly Data Report for October 06, 2017

All times are specified in Local Standard Time (LST). Add 1 hour to adjust for Daylight Saving Time where and when it is observed.

DOAKTOWN AUTO RCS
NEW BRUNSWICK

46°35'06.090" N
66°00'35.071" W
43.00 m
8101201
71038
ADN

Download Data

Hourly Data (October 2017)
Hourly Data Report for October 6, 2017
Temp Definition
°C
Dew Point Temp Definition
°C
Rel Hum Definition
%
Wind Dir Definition
10's deg

Wind Spd Definition
km/h
Visibility Definition
km
Stn Press Definition
kPa
Hmdx Definition


Wind Chill Definition


Weather Definition


TIME
00:00 9.9 8.1 89   0   100.57     LegendNANA
01:00 9.1 7.9 92 0 1   100.61     LegendNANA
02:00 8.1 7.0 93 27 2   100.67     LegendNANA
03:00 12.1 6.9 70 26 9   100.66     LegendNANA
04:00 8.7 6.1 83 24 2   100.72     LegendNANA
05:00 7.5 5.6 88 19 1   100.78     LegendNANA
06:00 6.1 4.8 92 0 1   100.82     LegendNANA
07:00 5.5 4.6 94 24 3   100.92     LegendNANA
08:00 8.7 7.3 91 24 7   101.01     LegendNANA
09:00 11.3 6.8 74 25 7   101.03     LegendNANA
10:00 13.1 6.6 64 26 8   101.01     LegendNANA
11:00 15.2 5.7 53 25 8   100.95     LegendNANA
12:00 16.0 5.0 48 23 14   100.93     LegendNANA
13:00 17.0 4.9 45 24 19   100.87     LegendNANA
14:00 16.6 5.9 49 27 15   100.84     LegendNANA
15:00 16.3 4.3 45 25 16   100.84     LegendNANA
16:00 16.4 4.3 44 26 18   100.86     LegendNANA
17:00 15.6 3.7 45 25 13   100.87     LegendNANA
18:00 10.9 5.3 69 26 3   100.94     LegendNANA
19:00 8.4 5.3 81 28 2   101.00     LegendNANA
20:00 6.4 4.4 87 29 2   101.07     LegendNANA
21:00 5.5 4.3 91 28 2   101.14     LegendNANA
22:00 4.1 3.1 93 23 2   101.24     LegendNANA
23:00 3.5 2.7 95 0 1   101.33     LegendNANA

Notes on Data Quality.

Legend

  • E = Estimated
  • M = Missing
  • NA = Not Available
  • ‡ = Partner data that is not subject to review by the National Climate Archives
Date modified: